TimeCDT,TemperatureF,Dew PointF,Humidity,Sea Level PressureIn,VisibilityMPH,Wind Direction,Wind SpeedMPH,Gust SpeedMPH,PrecipitationIn,Events,Conditions,WindDirDegrees,DateUTC
12:54 AM,43.0,39.0,86,30.20,8.0,ENE,3.5,-,N/A,,Clear,70,2013-03-30 05:54:00
1:54 AM,39.9,37.0,89,30.19,6.0,East,8.1,-,N/A,,Clear,90,2013-03-30 06:54:00
2:54 AM,39.9,37.9,93,30.18,4.0,ESE,6.9,-,N/A,,Clear,110,2013-03-30 07:54:00
3:54 AM,39.9,37.0,89,30.19,3.0,Calm,Calm,-,N/A,,Clear,0,2013-03-30 08:54:00
4:11 AM,37.4,35.6,93,30.16,2.5,East,8.1,-,N/A,,Clear,80,2013-03-30 09:11:00
4:54 AM,39.0,37.9,96,30.16,2.0,East,5.8,-,N/A,,Clear,80,2013-03-30 09:54:00
5:03 AM,39.2,37.4,93,30.15,1.8,East,5.8,-,N/A,,Clear,80,2013-03-30 10:03:00
5:30 AM,37.4,37.4,100,30.16,0.8,East,4.6,-,N/A,,Clear,90,2013-03-30 10:30:00
5:54 AM,37.0,36.0,96,30.16,0.8,East,6.9,-,N/A,,Clear,100,2013-03-30 10:54:00
6:02 AM,37.4,35.6,93,30.15,1.0,East,8.1,-,N/A,,Clear,100,2013-03-30 11:02:00
6:05 AM,37.4,35.6,93,30.15,0.8,East,8.1,-,N/A,,Mist,90,2013-03-30 11:05:00
6:13 AM,37.4,35.6,93,30.15,0.2,East,8.1,-,N/A,Fog,Fog,90,2013-03-30 11:13:00
6:54 AM,39.0,39.0,100,30.14,0.2,East,8.1,-,N/A,Fog,Fog,100,2013-03-30 11:54:00
7:54 AM,41.0,39.9,96,30.16,0.2,ESE,6.9,-,N/A,Fog,Fog,110,2013-03-30 12:54:00
8:54 AM,42.1,42.1,100,30.14,0.2,East,8.1,-,0.01,Fog,Fog,100,2013-03-30 13:54:00
9:44 AM,46.4,44.6,93,30.13,2.0,East,6.9,-,N/A,,Mostly Cloudy,90,2013-03-30 14:44:00
9:49 AM,46.4,46.4,100,30.13,3.0,SE,8.1,-,N/A,,Scattered Clouds,130,2013-03-30 14:49:00
9:54 AM,46.0,44.1,93,30.13,4.0,SE,8.1,-,N/A,,Scattered Clouds,130,2013-03-30 14:54:00
10:54 AM,51.1,43.0,74,30.11,10.0,SE,16.1,-,N/A,,Clear,140,2013-03-30 15:54:00
11:54 AM,52.0,42.1,69,30.10,10.0,SE,12.7,-,N/A,,Clear,140,2013-03-30 16:54:00
12:54 PM,54.0,43.0,66,30.06,10.0,SE,16.1,-,N/A,,Clear,140,2013-03-30 17:54:00
1:54 PM,55.0,42.1,62,30.04,10.0,South,11.5,-,N/A,,Partly Cloudy,170,2013-03-30 18:54:00
2:54 PM,54.0,42.1,64,30.01,10.0,South,12.7,-,N/A,,Overcast,190,2013-03-30 19:54:00
3:54 PM,53.1,43.0,69,29.98,10.0,SSE,11.5,-,N/A,,Overcast,150,2013-03-30 20:54:00
4:54 PM,50.0,45.0,83,29.99,3.0,Calm,Calm,-,0.05,Rain,Light Rain,0,2013-03-30 21:54:00
5:54 PM,50.0,45.0,83,29.97,6.0,SSE,4.6,-,0.01,Rain,Light Rain,150,2013-03-30 22:54:00
6:54 PM,48.9,45.0,86,29.94,6.0,SSE,10.4,-,0.01,Rain,Light Rain,160,2013-03-30 23:54:00
7:54 PM,48.0,43.0,83,29.95,10.0,SSE,4.6,-,0.00,,Overcast,160,2013-03-31 00:54:00
8:54 PM,46.9,44.1,90,29.95,6.0,SSE,5.8,-,0.00,,Overcast,150,2013-03-31 01:54:00
9:36 PM,46.4,44.6,93,29.94,6.0,SSE,4.6,-,N/A,,Overcast,150,2013-03-31 02:36:00
9:54 PM,46.9,44.1,90,29.94,6.0,SE,4.6,-,N/A,,Overcast,130,2013-03-31 02:54:00
10:46 PM,46.4,44.6,93,29.94,6.0,ESE,3.5,-,N/A,,Overcast,120,2013-03-31 03:46:00
10:54 PM,46.9,45.0,93,29.94,6.0,ESE,3.5,-,N/A,,Overcast,120,2013-03-31 03:54:00
11:54 PM,46.9,45.0,93,29.92,4.0,Calm,Calm,-,N/A,,Overcast,0,2013-03-31 04:54:00